KE4OGG Weather Reports


time (UTC)temp
C
wind
direction
speed
KPH
gust
KPH
rain 1hr
cm
rain 24hr
cm
rain mn
cm
humidity
%
barometer
mb
20260505212529 25 109 1.6 20.9 0.00 0.00 0.00 24 1014.2
20260505212025 25 219 6.4 20.9 0.00 0.00 0.00 25 1014.1
20260505211537 26 115 9.7 20.9 0.00 0.00 0.00 24 1014.3
20260505211028 26 158 0.0 6.4 0.00 0.00 0.00 23 1014.2
20260505210526 26 280 0.0 6.4 0.00 0.00 0.00 24 1014.3
20260505210037 26 122 1.6 6.4 0.00 0.00 0.00 23 1014.4
20260505205524 26 132 1.6 6.4 0.00 0.00 0.00 22 1014.4
20260505205024 26 125 1.6 9.7 0.00 0.00 0.00 22 1014.4
20260505204542 26 263 1.6 9.7 0.00 0.00 0.00 22 1014.4
20260505204024 26 135 3.2 9.7 0.00 0.00 0.00 21 1014.5
20260505203524 27 180 1.6 12.9 0.00 0.00 0.00 22 1014.6
20260505203048 27 141 4.8 16.1 0.00 0.00 0.00 22 1014.6
20260505202525 26 118 3.2 16.1 0.00 0.00 0.00 21 1014.6
20260505202024 26 132 3.2 12.9 0.00 0.00 0.00 23 1014.6
20260505201542 26 98 1.6 12.9 0.00 0.00 0.00 25 1014.7
20260505201025 27 138 3.2 12.9 0.00 0.00 0.00 24 1014.8
20260505200527 27 135 1.6 4.8 0.00 0.00 0.00 22 1014.8
20260505200048 27 304 1.6 16.1 0.00 0.00 0.00 21 1014.8
20260505195524 27 129 1.6 16.1 0.00 0.00 0.00 22 1014.9
20260505195024 27 130 4.8 16.1 0.00 0.00 0.00 23 1014.8
20260505194546 27 156 0.0 11.3 0.00 0.00 0.00 23 1015.0
20260505194026 27 83 1.6 11.3 0.00 0.00 0.00 24 1015.1
20260505193525 27 98 1.6 11.3 0.00 0.00 0.00 21 1015.3
20260505193037 27 139 3.2 11.3 0.00 0.00 0.00 23 1015.4
20260505192528 27 129 1.6 6.4 0.00 0.00 0.00 22 1015.4
20260505192024 27 248 1.6 6.4 0.00 0.00 0.00 25 1015.4
20260505191537 27 72 0.0 8.0 0.00 0.00 0.00 21 1015.6
20260505191026 27 146 1.6 8.0 0.00 0.00 0.00 22 1015.7
20260505190524 27 131 0.0 12.9 0.00 0.00 0.00 27 1015.7
20260505190045 26 147 1.6 12.9 0.00 0.00 0.00 24 1015.9
20260505185524 27 174 3.2 17.7 0.00 0.00 0.00 23 1016.0
20260505185025 27 229 4.8 17.7 0.00 0.00 0.00 24 1016.1
20260505184540 27 123 1.6 6.4 0.00 0.00 0.00 23 1016.0
20260505184023 27 128 3.2 6.4 0.00 0.00 0.00 24 1016.1
20260505183523 27 0 0.0 11.3 0.00 0.00 0.00 24 1016.1
20260505183039 27 131 1.6 11.3 0.00 0.00 0.00 24 1016.2
20260505182524 26 269 3.2 11.3 0.00 0.00 0.00 27 1016.1
20260505182024 26 285 3.2 9.7 0.00 0.00 0.00 25 1016.0
20260505181540 27 279 1.6 9.7 0.00 0.00 0.00 22 1016.1
20260505181025 26 143 0.0 9.7 0.00 0.00 0.00 25 1016.1
20260505180525 26 282 1.6 9.7 0.00 0.00 0.00 25 1016.4
20260505180100 26 153 1.6 8.0 0.00 0.00 0.00 22 1016.4
20260505175530 26 269 1.6 8.0 0.00 0.00 0.00 23 1016.4
20260505175029 26 134 1.6 9.7 0.00 0.00 0.00 23 1016.5
20260505174557 26 242 3.2 9.7 0.00 0.00 0.00 22 1016.7
20260505174023 26 133 1.6 8.0 0.00 0.00 0.00 24 1016.8
20260505173526 26 129 1.6 11.3 0.00 0.00 0.00 23 1017.0
20260505173044 26 233 1.6 17.7 0.00 0.00 0.00 25 1016.9
20260505172522 26 134 3.2 17.7 0.00 0.00 0.00 27 1016.9
20260505172022 26 129 3.2 17.7 0.00 0.00 0.00 27 1016.8
20260505171538 27 197 1.6 8.0 0.00 0.00 0.00 24 1017.1
20260505171021 26 89 0.0 8.0 0.00 0.00 0.00 25 1017.1
20260505170522 26 125 1.6 9.7 0.00 0.00 0.00 25 1017.1
20260505170038 26 227 0.0 16.1 0.00 0.00 0.00 25 1017.1
20260505165522 26 301 1.6 16.1 0.00 0.00 0.00 25 1016.8
20260505165024 26 129 4.8 16.1 0.00 0.00 0.00 24 1016.8
20260505164535 26 129 3.2 9.7 0.00 0.00 0.00 25 1016.9
20260505164022 26 257 0.0 6.4 0.00 0.00 0.00 27 1016.9
20260505163521 26 141 1.6 6.4 0.00 0.00 0.00 27 1016.9
20260505163041 26 137 1.6 4.8 0.00 0.00 0.00 28 1016.8
20260505162522 25 117 1.6 9.7 0.00 0.00 0.00 29 1016.8
20260505162022 25 160 1.6 9.7 0.00 0.00 0.00 27 1017.0
20260505161539 25 139 3.2 8.0 0.00 0.00 0.00 28 1017.2
20260505161028 25 174 0.0 11.3 0.00 0.00 0.00 31 1017.2
20260505160523 25 98 3.2 11.3 0.00 0.00 0.00 31 1017.2
20260505153040 23 61 0.0 6.4 0.00 0.00 0.00 35 1017.6
20260505152522 22 286 1.6 4.8 0.00 0.00 0.00 37 1017.6
20260505152022 22 276 0.0 4.8 0.00 0.00 0.00 38 1017.7
20260505151535 22 300 1.6 6.4 0.00 0.00 0.00 38 1017.7
20260505151022 21 103 1.6 9.7 0.00 0.00 0.00 39 1017.6
20260505150524 21 134 3.2 9.7 0.00 0.00 0.00 39 1017.8
20260505140522 20 339 0.0 3.2 0.00 0.00 0.00 41 1017.4
20260505125024 16 0 0.0 1.6 0.00 0.00 0.00 50 1017.0
20260505124546 15 0 0.0 8.0 0.00 0.00 0.00 53 1016.9
20260505124025 14 95 1.6 8.0 0.00 0.00 0.00 55 1016.8
20260505123525 13 28 0.0 3.2 0.00 0.00 0.00 55 1017.2
20260505123041 13 0 1.6 3.2 0.00 0.00 0.00 56 1017.1
20260505122523 13 0 0.0 1.6 0.00 0.00 0.00 56 1017.1
20260505122026 12 0 0.0 1.6 0.00 0.00 0.00 57 1017.0
20260505121539 12 0 0.0 1.6 0.00 0.00 0.00 57 1016.9
20260505121026 12 0 0.0 1.6 0.00 0.00 0.00 58 1016.7
20260505120522 12 110 0.0 1.6 0.00 0.00 0.00 59 1016.7
20260505120041 12 0 0.0 0.0 0.00 0.00 0.00 59 1016.6
20260505115522 12 110 0.0 0.0 0.00 0.00 0.00 60 1016.7
20260505115028 11 0 0.0 0.0 0.00 0.00 0.00 60 1016.6
20260505114538 11 0 0.0 0.0 0.00 0.00 0.00 58 1016.4
20260505114025 11 0 0.0 1.6 0.00 0.00 0.00 58 1016.4
20260505113526 11 0 0.0 1.6 0.00 0.00 0.00 58 1016.4
20260505113035 11 0 0.0 0.0 0.00 0.00 0.00 58 1016.4
20260505112522 11 0 0.0 0.0 0.00 0.00 0.00 58 1016.3
20260505112022 11 0 0.0 3.2 0.00 0.00 0.00 58 1016.3
20260505111540 11 0 0.0 3.2 0.00 0.00 0.00 58 1016.3
20260505111027 11 0 0.0 3.2 0.00 0.00 0.00 57 1016.3
20260505110524 11 0 0.0 3.2 0.00 0.00 0.00 57 1016.3
20260505102025 8 0 0.0 0.0 0.00 0.00 0.00 68 1016.2
20260505101537 8 0 0.0 1.6 0.00 0.00 0.00 67 1016.2
20260505101022 8 104 0.0 1.6 0.00 0.00 0.00 67 1016.2
20260505100522 8 0 0.0 1.6 0.00 0.00 0.00 67 1016.1
20260505100035 8 0 0.0 0.0 0.00 0.00 0.00 66 1016.1
20260505095522 8 0 0.0 1.6 0.00 0.00 0.00 66 1016.1
20260505095024 8 0 0.0 1.6 0.00 0.00 0.00 66 1016.1
20260505094538 8 0 0.0 0.0 0.00 0.00 0.00 65 1016.1
20260505094022 9 0 0.0 0.0 0.00 0.00 0.00 65 1016.0
20260505093523 9 0 0.0 0.0 0.00 0.00 0.00 65 1016.0
20260505093040 9 0 0.0 1.6 0.00 0.00 0.00 65 1016.2
20260505092522 9 0 0.0 1.6 0.00 0.00 0.00 65 1016.2
20260505092022 9 104 0.0 1.6 0.00 0.00 0.00 64 1016.0
20260505091544 9 0 0.0 0.0 0.00 0.00 0.00 64 1016.0
20260505091022 10 0 0.0 0.0 0.00 0.00 0.00 64 1016.0
20260505090522 9 0 0.0 0.0 0.00 0.00 0.00 64 1015.9
20260505090038 9 0 0.0 1.6 0.00 0.00 0.00 64 1016.0
20260505085522 9 0 0.0 1.6 0.00 0.00 0.00 63 1015.9
20260505085025 10 0 0.0 0.0 0.00 0.00 0.00 63 1015.9
20260505084535 10 0 0.0 0.0 0.00 0.00 0.00 63 1015.8
20260505084023 10 0 0.0 1.6 0.00 0.00 0.00 62 1015.8
20260505083521 10 0 0.0 1.6 0.00 0.00 0.00 62 1016.0
20260505083040 10 0 0.0 1.6 0.00 0.00 0.00 62 1016.0
20260505082522 10 0 0.0 4.8 0.00 0.00 0.00 62 1015.9
20260505082023 10 0 0.0 4.8 0.00 0.00 0.00 63 1015.8
20260505081540 10 0 1.6 4.8 0.00 0.00 0.00 63 1015.9
20260505081023 10 94 1.6 3.2 0.00 0.00 0.00 62 1015.7
20260505080523 10 0 0.0 0.0 0.00 0.00 0.00 61 1015.4
20260505080038 10 0 0.0 0.0 0.00 0.00 0.00 61 1015.4
20260505075523 10 0 0.0 0.0 0.00 0.00 0.00 61 1015.4
20260505075024 10 0 0.0 0.0 0.00 0.00 0.00 61 1015.4
20260505074537 10 0 0.0 0.0 0.00 0.00 0.00 61 1015.3
20260505074022 11 0 0.0 0.0 0.00 0.00 0.00 60 1015.5
20260505073522 11 0 0.0 0.0 0.00 0.00 0.00 60 1015.4
20260505073037 11 0 0.0 0.0 0.00 0.00 0.00 59 1015.4
20260505072526 11 0 0.0 0.0 0.00 0.00 0.00 59 1015.3
20260505072024 11 0 0.0 0.0 0.00 0.00 0.00 59 1015.3
20260505071545 11 0 0.0 0.0 0.00 0.00 0.00 59 1015.5
20260505071022 11 0 0.0 0.0 0.00 0.00 0.00 59 1015.4
20260505070526 11 0 0.0 0.0 0.00 0.00 0.00 60 1015.5
20260505070047 11 0 0.0 0.0 0.00 0.00 0.00 60 1015.5
20260505065524 11 0 0.0 0.0 0.00 0.00 0.00 60 1015.6
20260505065024 11 0 0.0 0.0 0.00 0.00 0.00 59 1015.7
20260505064538 11 0 0.0 0.0 0.00 0.00 0.00 59 1015.7
20260505064022 11 0 0.0 0.0 0.00 0.00 0.00 59 1015.8
20260505063522 11 0 0.0 0.0 0.00 0.00 0.00 59 1015.9
20260505063048 11 0 0.0 0.0 0.00 0.00 0.00 59 1015.8
20260505062526 11 0 0.0 0.0 0.00 0.00 0.00 58 1015.9
20260505062022 11 0 0.0 0.0 0.00 0.00 0.00 58 1016.0
20260505061603 11 0 0.0 0.0 0.00 0.00 0.00 58 1015.9
20260505061025 11 0 0.0 0.0 0.00 0.00 0.00 57 1015.9
20260505060528 11 0 0.0 0.0 0.00 0.00 0.00 57 1016.0
20260505060036 11 0 0.0 0.0 0.00 0.00 0.00 57 1015.9
20260505055525 11 0 0.0 0.0 0.00 0.00 0.00 57 1016.0
20260505055023 11 0 0.0 0.0 0.00 0.00 0.00 57 1015.9
20260505054541 12 0 0.0 0.0 0.00 0.00 0.00 57 1015.9
20260505054024 12 0 0.0 0.0 0.00 0.00 0.00 57 1015.9
20260505053523 12 0 0.0 0.0 0.00 0.00 0.00 57 1016.0
20260505053043 12 0 0.0 0.0 0.00 0.00 0.00 55 1016.0
20260505052526 12 0 0.0 0.0 0.00 0.00 0.00 55 1016.0
20260505052023 12 0 0.0 0.0 0.00 0.00 0.00 56 1016.0
20260505051557 12 0 0.0 0.0 0.00 0.00 0.00 55 1016.0
20260505051023 12 0 0.0 0.0 0.00 0.00 0.00 54 1016.1
20260505050523 12 0 0.0 0.0 0.00 0.00 0.00 53 1016.1
20260505041543 14 0 0.0 0.0 0.00 0.00 0.00 49 1016.1
20260505041023 14 0 0.0 0.0 0.00 0.00 0.00 49 1016.1
20260505040523 14 0 0.0 0.0 0.00 0.00 0.00 49 1016.1
20260505040040 14 0 0.0 0.0 0.00 0.00 0.00 49 1016.1
20260505035523 14 0 0.0 0.0 0.00 0.00 0.00 49 1016.1
20260505035020 14 0 0.0 0.0 0.00 0.00 0.00 50 1016.1
20260505034537 15 0 0.0 0.0 0.00 0.00 0.00 49 1016.1
20260505034025 15 0 0.0 0.0 0.00 0.00 0.00 49 1016.1
20260505033526 15 0 0.0 0.0 0.00 0.00 0.00 48 1016.1
20260505033033 15 0 0.0 0.0 0.00 0.00 0.00 48 1016.2
20260505032524 15 0 0.0 0.0 0.00 0.00 0.00 47 1016.2
20260505032023 15 0 0.0 3.2 0.00 0.00 0.00 47 1016.2
20260505031540 15 0 0.0 3.2 0.00 0.00 0.00 47 1016.0
20260505031023 15 105 1.6 3.2 0.00 0.00 0.00 49 1016.1
20260505030524 15 0 0.0 0.0 0.00 0.00 0.00 48 1016.0
20260505030039 15 0 0.0 0.0 0.00 0.00 0.00 48 1016.1
20260505025524 16 0 0.0 0.0 0.00 0.00 0.00 47 1016.1
20260505025023 16 0 0.0 0.0 0.00 0.00 0.00 47 1016.1
20260505024545 16 0 0.0 0.0 0.00 0.00 0.00 46 1016.1
20260505024023 16 0 0.0 0.0 0.00 0.00 0.00 45 1016.1
20260505023523 16 0 0.0 0.0 0.00 0.00 0.00 45 1016.1
20260505023038 16 0 0.0 0.0 0.00 0.00 0.00 45 1016.1
20260505022523 16 0 0.0 0.0 0.00 0.00 0.00 44 1015.9
20260505022023 17 0 0.0 0.0 0.00 0.00 0.00 44 1015.9
20260505021536 17 0 0.0 0.0 0.00 0.00 0.00 44 1015.9
20260505021023 17 0 0.0 0.0 0.00 0.00 0.00 44 1015.8
20260505020524 17 0 0.0 0.0 0.00 0.00 0.00 43 1015.8
20260505020036 17 0 0.0 0.0 0.00 0.00 0.00 43 1015.8
20260505015524 17 0 0.0 0.0 0.00 0.00 0.00 42 1015.8
20260505015024 18 0 0.0 0.0 0.00 0.00 0.00 41 1015.6
20260505014540 18 0 0.0 0.0 0.00 0.00 0.00 40 1015.6
20260505014026 18 0 0.0 1.6 0.00 0.00 0.00 40 1015.6
20260505013523 18 0 0.0 1.6 0.00 0.00 0.00 40 1015.6
20260505013040 18 0 0.0 1.6 0.00 0.00 0.00 40 1015.6
20260505012524 18 0 0.0 1.6 0.00 0.00 0.00 40 1015.6
20260505012025 18 131 1.6 1.6 0.00 0.00 0.00 40 1015.5
20260505011538 18 0 0.0 0.0 0.00 0.00 0.00 40 1015.4
20260505011024 18 155 0.0 0.0 0.00 0.00 0.00 40 1015.3
20260505010524 18 155 0.0 0.0 0.00 0.00 0.00 40 1015.3
20260505010038 18 0 0.0 0.0 0.00 0.00 0.00 39 1015.3
20260505005524 18 155 0.0 0.0 0.00 0.00 0.00 40 1015.2
20260505005024 19 0 0.0 0.0 0.00 0.00 0.00 39 1015.2
20260505004541 19 0 0.0 0.0 0.00 0.00 0.00 37 1015.2
20260505004023 19 0 0.0 0.0 0.00 0.00 0.00 37 1015.1
20260505003523 20 0 0.0 0.0 0.00 0.00 0.00 37 1015.1
20260505003038 20 0 0.0 0.0 0.00 0.00 0.00 36 1015.1
20260505002525 20 185 0.0 1.6 0.00 0.00 0.00 36 1015.1
20260505002024 20 185 0.0 1.6 0.00 0.00 0.00 35 1015.0
20260505001538 20 185 0.0 1.6 0.00 0.00 0.00 34 1015.1
20260505001024 21 0 0.0 1.6 0.00 0.00 0.00 33 1015.0
20260505000524 21 0 0.0 0.0 0.00 0.00 0.00 34 1015.1
20260505000045 21 0 0.0 0.0 0.00 0.00 0.00 32 1015.0
20260504235524 21 204 0.0 1.6 0.00 0.00 0.00 32 1015.0
20260504235028 22 0 0.0 1.6 0.00 0.00 0.00 31 1015.0
20260504234537 22 0 0.0 1.6 0.00 0.00 0.00 30 1014.9
20260504234025 22 0 0.0 0.0 0.00 0.00 0.00 30 1014.9
20260504233522 22 0 0.0 0.0 0.00 0.00 0.00 30 1014.9
20260504233101 22 0 0.0 1.6 0.00 0.00 0.00 31 1014.8
20260504232526 22 0 0.0 1.6 0.00 0.00 0.00 30 1014.8
20260504232025 22 0 0.0 1.6 0.00 0.00 0.00 29 1014.8
20260504231544 23 250 0.0 1.6 0.00 0.00 0.00 28 1014.7
20260504231025 23 0 0.0 1.6 0.00 0.00 0.00 28 1014.7
20260504230526 23 250 0.0 1.6 0.00 0.00 0.00 28 1014.7
20260504230050 23 0 0.0 4.8 0.00 0.00 0.00 27 1014.7
20260504225526 23 0 0.0 4.8 0.00 0.00 0.00 26 1014.6
20260504225025 23 189 0.0 4.8 0.00 0.00 0.00 25 1014.6
20260504224537 24 248 0.0 3.2 0.00 0.00 0.00 24 1014.6
20260504224023 24 245 0.0 4.8 0.00 0.00 0.00 24 1014.6
20260504223524 24 148 0.0 4.8 0.00 0.00 0.00 25 1014.6
20260504223038 25 114 0.0 4.8 0.00 0.00 0.00 25 1014.6
20260504222523 25 110 0.0 4.8 0.00 0.00 0.00 24 1014.8
20260504222024 25 182 0.0 6.4 0.00 0.00 0.00 23 1014.6
20260504221536 25 194 0.0 6.4 0.00 0.00 0.00 22 1014.6
20260504221022 25 187 1.6 9.7 0.00 0.00 0.00 22 1014.7
20260504220523 25 185 1.6 9.7 0.00 0.00 0.00 24 1014.6
20260504220042 26 104 1.6 9.7 0.00 0.00 0.00 23 1014.7
20260504215522 25 0 0.0 4.8 0.00 0.00 0.00 22 1014.6
20260504215021 25 118 0.0 4.8 0.00 0.00 0.00 23 1014.7
20260504214538 25 262 0.0 6.4 0.00 0.00 0.00 22 1014.7
20260504214027 25 267 0.0 6.4 0.00 0.00 0.00 22 1014.6
20260504213521 25 207 0.0 4.8 0.00 0.00 0.00 22 1014.7
20260504213038 25 181 0.0 4.8 0.00 0.00 0.00 21 1014.7